Location: Jaworzyna Śląska
(50.9128°N, 16.4318°E)
Time: 22:45:17
(UTC+02:00)

Envisat - Visible Passes

Search period start: 21 April 2019 00:00
Search period end: 01 May 2019 00:00
Orbit: 764 x 766 km, 98.2° (Epoch: 21 April)

Date Brightness Start Highest point End Pass type
(mag) Time Alt. Az. Time Alt. Az. Time Alt. Az.
21 Apr 5.6 20:28:34 10° SW 20:32:37 24° W 20:36:41 10° NW visible
23 Apr 5.9 20:55:42 10° WSW 20:58:29 15° W 21:01:17 10° NW visible
26 Apr 5.7 20:43:41 10° SW 20:47:06 18° W 20:50:32 10° NW visible
28 Apr 6.2 21:11:53 10° W 21:13:02 11° W 21:14:11 10° WNW visible
